Preview of NWS' New Version of Forecast
This preview is not operational and should not be used for support decisions.

Regional Weather Roundup (RWR)

Issued by National Weather Service (NWS)

                            
000
ASUS43 KBIS 220302
RWRND 

NORTH DAKOTA REGIONAL WEATHER ROUNDUP
NATIONAL WEATHER SERVICE BISMARCK ND
1000 PM CDT SAT SEP 21 2019

NOTE: "FAIR" INDICATES FEW OR NO CLOUDS BELOW 12,000 FEET WITH NO
SIGNIFICANT WEATHER AND/OR OBSTRUCTIONS TO VISIBILITY.


NDZ001>003-009>011-017-220400-
NORTHWEST NORTH DAKOTA
  
CITY           SKY/WX    TMP DP  RH WIND       PRES   REMARKS
WILLISTON      PTCLDY    51  46  83 SW7       29.89R                  
MINOT          CLEAR     53  50  89 SW8       29.83S                  
$$
 
NDZ018>021-031>035-040>046-220400-
SOUTHWEST NORTH DAKOTA
  
CITY           SKY/WX    TMP DP  RH WIND       PRES   REMARKS
BISMARCK       CLEAR     56  50  80 W9        29.89R                  
DICKINSON      CLEAR     47  44  90 W9        29.92S                  
GARRISON         N/A     49  48  97 W7        29.86S                  
HETTINGER ARPT CLEAR     45  43  93 W5        29.97R                  
$$
 
NDZ004>008-012>016-024-026-027-054-220400-
NORTHEAST NORTH DAKOTA
  
CITY           SKY/WX    TMP DP  RH WIND       PRES   REMARKS
GRAND FORKS    PTCLDY    57  51  80 W9        29.73R                  
DEVILS LAKE    PTCLDY    53  50  89 NW14      29.80R                  
$$
 
NDZ022-023-025-028>030-036>039-047>053-220400-
SOUTHEAST NORTH DAKOTA
  
CITY           SKY/WX    TMP DP  RH WIND       PRES   REMARKS
FARGO          MOCLDY    60  55  83 W7        29.76R                  
JAMESTOWN      CLEAR     56  52  86 NW13      29.82R                  
$$